ACA788 KLAX-CYYZ

Flight info

Callsign ACA788
Flight time N/A
Altitude 33000
Route DOTSS2 CLEEE DCT PKE DCT FLG J10 RSK J64 PUB DCT GLD DCT DIYAP DCT JOT DCT SVM DCT QWERI NUBER6
Aircraft B738/M-SDE2E3FGHIRWXY/LB1

Departure

Time 2026-04-25 14:55
Airport Los Angeles International Airport (KLAX)

Arrival

Time N/A
Airport Toronto Pearson International Airport (CYYZ)
Time Latitude Longitude Altitude Speed Heading
2026-04-25 14:14 33.94677 -118.40653 94 ft 0 kts 263°
2026-04-25 14:38 33.94678 -118.40643 94 ft 3 kts 263°
2026-04-25 14:38 33.94680 -118.40619 94 ft 2 kts 263°
2026-04-25 14:38 33.94681 -118.40600 94 ft 3 kts 297°
2026-04-25 14:39 33.94671 -118.40590 95 ft 3 kts 351°
2026-04-25 14:39 33.94656 -118.40587 94 ft 1 kts 354°
2026-04-25 14:39 33.94640 -118.40585 93 ft 3 kts 354°
2026-04-25 14:39 33.94631 -118.40584 94 ft 0 kts 354°
2026-04-25 14:44 33.94648 -118.40586 95 ft 4 kts 353°
2026-04-25 14:44 33.94686 -118.40584 94 ft 7 kts
2026-04-25 14:44 33.94738 -118.40580 97 ft 8 kts 357°
2026-04-25 14:44 33.94793 -118.40592 96 ft 8 kts 346°
2026-04-25 14:45 33.94833 -118.40601 99 ft 2 kts 353°
2026-04-25 14:45 33.94862 -118.40578 97 ft 7 kts 64°
2026-04-25 14:45 33.94874 -118.40499 99 ft 11 kts 83°
2026-04-25 14:45 33.94882 -118.40409 99 ft 11 kts 84°
2026-04-25 14:46 33.94892 -118.40322 97 ft 10 kts 83°
2026-04-25 14:46 33.94900 -118.40245 99 ft 8 kts 83°
2026-04-25 14:46 33.94912 -118.40195 99 ft 6 kts 55°
2026-04-25 14:46 33.94918 -118.40188 99 ft 2 kts 42°
2026-04-25 14:47 33.94924 -118.40183 100 ft 0 kts 35°
2026-04-25 14:48 33.94949 -118.40173 103 ft 6 kts
2026-04-25 14:48 33.94987 -118.40181 107 ft 6 kts 338°
2026-04-25 14:48 33.95009 -118.40210 108 ft 4 kts 289°
2026-04-25 14:48 33.95011 -118.40240 108 ft 0 kts 266°
2026-04-25 14:54 33.95009 -118.40268 108 ft 20 kts 265°
2026-04-25 14:54 33.94957 -118.40773 108 ft 99 kts 263°
2026-04-25 14:54 33.94842 -118.41883 122 ft 163 kts 261°
2026-04-25 14:55 33.94691 -118.43286 830 ft 169 kts 261°
2026-04-25 14:55 33.94548 -118.44699 1755 ft 171 kts 261°
2026-04-25 14:55 33.94397 -118.46199 2349 ft 195 kts 262°
2026-04-25 14:55 33.94294 -118.47958 2632 ft 225 kts 267°
2026-04-25 14:56 33.94238 -118.49903 3148 ft 237 kts 268°
2026-04-25 14:56 33.94203 -118.51224 3579 ft 235 kts 266°
2026-04-25 14:56 33.94020 -118.53781 3693 ft 230 kts 264°
2026-04-25 14:56 33.93859 -118.55704 3678 ft 232 kts 264°
2026-04-25 14:57 33.93699 -118.57665 3684 ft 237 kts 264°
2026-04-25 14:57 33.93594 -118.58976 3720 ft 239 kts 264°
2026-04-25 14:57 33.93425 -118.60998 3765 ft 243 kts 261°
2026-04-25 14:57 33.92763 -118.62860 3776 ft 247 kts 229°
2026-04-25 14:58 33.91358 -118.64017 3798 ft 249 kts 196°
2026-04-25 14:58 33.89627 -118.64225 3843 ft 252 kts 178°
2026-04-25 14:58 33.87884 -118.64100 3879 ft 256 kts 176°
2026-04-25 14:58 33.86100 -118.63937 3908 ft 259 kts 176°
2026-04-25 14:59 33.84299 -118.63689 3919 ft 262 kts 163°
2026-04-25 14:59 33.82675 -118.62686 3958 ft 264 kts 146°
2026-04-25 14:59 33.81149 -118.61422 3985 ft 267 kts 146°
2026-04-25 14:59 33.79616 -118.60151 4066 ft 267 kts 146°
2026-04-25 15:00 33.78079 -118.58883 4137 ft 268 kts 146°
2026-04-25 15:00 33.76558 -118.57662 4334 ft 264 kts 147°
2026-04-25 15:00 33.75026 -118.56416 4357 ft 267 kts 146°
2026-04-25 15:00 33.73465 -118.55137 4536 ft 271 kts 146°
2026-04-25 15:01 33.71914 -118.53865 4873 ft 270 kts 146°
2026-04-25 15:01 33.70368 -118.52554 5141 ft 273 kts 138°
2026-04-25 15:01 33.69282 -118.50723 5396 ft 276 kts 114°
2026-04-25 15:01 33.68615 -118.48559 5698 ft 276 kts 109°
2026-04-25 15:02 33.67992 -118.46366 6076 ft 277 kts 109°
2026-04-25 15:02 33.67360 -118.44159 6777 ft 282 kts 110°
2026-04-25 15:02 33.66707 -118.41917 7507 ft 286 kts 110°
2026-04-25 15:02 33.66039 -118.39649 8243 ft 290 kts 110°
2026-04-25 15:03 33.65368 -118.37383 8887 ft 296 kts 110°
2026-04-25 15:03 33.64676 -118.35036 9575 ft 300 kts 109°
2026-04-25 15:03 33.64353 -118.32577 10175 ft 308 kts 91°
2026-04-25 15:03 33.64348 -118.29921 10417 ft 329 kts 90°
2026-04-25 15:04 33.64378 -118.27078 10639 ft 349 kts 89°
2026-04-25 15:04 33.64412 -118.24108 11107 ft 360 kts 90°
2026-04-25 15:04 33.64437 -118.21117 11699 ft 366 kts 90°
2026-04-25 15:04 33.64452 -118.18030 12260 ft 373 kts 90°
2026-04-25 15:05 33.64461 -118.14880 12850 ft 378 kts 90°
2026-04-25 15:05 33.64464 -118.11717 13542 ft 380 kts 91°
2026-04-25 15:05 33.64463 -118.08526 14162 ft 384 kts 91°
2026-04-25 15:06 33.64458 -118.02086 15431 ft 389 kts 92°
2026-04-25 15:06 33.64454 -117.98820 16037 ft 392 kts 92°
2026-04-25 15:06 33.64448 -117.95519 16570 ft 397 kts 92°
2026-04-25 15:06 33.64441 -117.92174 17105 ft 401 kts 92°
2026-04-25 15:07 33.64434 -117.88810 17657 ft 405 kts 92°
2026-04-25 15:07 33.64426 -117.85413 18176 ft 409 kts 92°
2026-04-25 15:07 33.64417 -117.81985 18701 ft 413 kts 92°
2026-04-25 15:07 33.64505 -117.78518 19192 ft 419 kts 84°
2026-04-25 15:08 33.65064 -117.75066 19660 ft 424 kts 78°
2026-04-25 15:08 33.65764 -117.71617 20158 ft 427 kts 77°
2026-04-25 15:08 33.66487 -117.68197 20609 ft 432 kts 77°
2026-04-25 15:08 33.67225 -117.64658 21056 ft 435 kts 77°
2026-04-25 15:09 33.67941 -117.61113 21517 ft 439 kts 78°
2026-04-25 15:09 33.68645 -117.57531 21930 ft 443 kts 78°
2026-04-25 15:09 33.70043 -117.50250 22731 ft 450 kts 78°
2026-04-25 15:10 33.70743 -117.46573 23170 ft 453 kts 78°
2026-04-25 15:10 33.71453 -117.42848 23471 ft 459 kts 78°
2026-04-25 15:10 33.72866 -117.35387 24283 ft 463 kts 78°
2026-04-25 15:11 33.73582 -117.31599 24656 ft 466 kts 79°
2026-04-25 15:11 33.74304 -117.27782 24995 ft 469 kts 79°
2026-04-25 15:11 33.75015 -117.23941 25325 ft 472 kts 82°
2026-04-25 15:12 33.75123 -117.16084 26011 ft 472 kts 96°
2026-04-25 15:12 33.74973 -117.12131 26299 ft 476 kts 96°
2026-04-25 15:12 33.74843 -117.08197 26605 ft 479 kts 96°
2026-04-25 15:12 33.74805 -117.06839 26721 ft 480 kts 95°
2026-04-25 15:13 33.74656 -117.00142 27215 ft 485 kts 95°
2026-04-25 15:13 33.74486 -116.91965 27791 ft 490 kts 95°
2026-04-25 15:13 33.74394 -116.87861 28090 ft 492 kts 95°
2026-04-25 15:14 33.74298 -116.83735 28336 ft 496 kts 95°
2026-04-25 15:14 33.74201 -116.79621 28605 ft 498 kts 95°
2026-04-25 15:14 33.74101 -116.75437 28867 ft 502 kts 95°
2026-04-25 15:14 33.73999 -116.71234 29087 ft 505 kts 95°
2026-04-25 15:15 33.73896 -116.66987 29343 ft 507 kts 95°
2026-04-25 15:15 33.73793 -116.62784 29609 ft 510 kts 96°
2026-04-25 15:15 33.73688 -116.58519 29967 ft 511 kts 96°
2026-04-25 15:15 33.73582 -116.54254 30296 ft 511 kts 96°
2026-04-25 15:16 33.73473 -116.49981 30594 ft 511 kts 96°
2026-04-25 15:16 33.73365 -116.45707 30872 ft 511 kts 96°
2026-04-25 15:16 33.73140 -116.37178 31446 ft 510 kts 96°
2026-04-25 15:17 33.72905 -116.28689 31929 ft 512 kts 96°
2026-04-25 15:17 33.72787 -116.24404 32198 ft 512 kts 96°
2026-04-25 15:17 33.72669 -116.20137 32500 ft 511 kts 96°
2026-04-25 15:18 33.72548 -116.15867 32776 ft 510 kts 96°
2026-04-25 15:18 33.72434 -116.07280 32878 ft 520 kts 86°
2026-04-25 15:18 33.73256 -116.03032 32921 ft 522 kts 72°
2026-04-25 15:19 33.75220 -115.96199 32892 ft 517 kts 71°
2026-04-25 15:19 33.77999 -115.86726 32900 ft 515 kts 72°
2026-04-25 15:20 33.80284 -115.78620 32917 ft 515 kts 72°
2026-04-25 15:20 33.82542 -115.70434 32922 ft 515 kts 72°
2026-04-25 15:21 33.84795 -115.62220 32909 ft 517 kts 72°
2026-04-25 15:21 33.87041 -115.54026 32902 ft 518 kts 72°
2026-04-25 15:22 33.89296 -115.45784 32882 ft 519 kts 72°
2026-04-25 15:22 33.91553 -115.37514 32898 ft 520 kts 72°
2026-04-25 15:23 33.93810 -115.29218 32874 ft 521 kts 72°
2026-04-25 15:23 33.96065 -115.20903 32874 ft 522 kts 72°
2026-04-25 15:24 33.98305 -115.12620 32875 ft 523 kts 72°
2026-04-25 15:24 34.00173 -115.05691 32853 ft 523 kts 72°
2026-04-25 15:25 34.02781 -114.95993 32863 ft 521 kts 72°
2026-04-25 15:25 34.05008 -114.87679 32847 ft 519 kts 72°
2026-04-25 15:26 34.07220 -114.79399 32857 ft 517 kts 72°
2026-04-25 15:26 34.09419 -114.71143 32846 ft 515 kts 72°
2026-04-25 15:27 34.11900 -114.63091 32855 ft 513 kts 66°
2026-04-25 15:28 34.16272 -114.51299 32844 ft 513 kts 64°
2026-04-25 15:28 34.19181 -114.43435 32841 ft 513 kts 65°
2026-04-25 15:29 34.22055 -114.35514 32845 ft 514 kts 65°
2026-04-25 15:29 34.24895 -114.27617 32847 ft 515 kts 65°
2026-04-25 15:30 34.27750 -114.19654 32841 ft 516 kts 65°
2026-04-25 15:30 34.30594 -114.11711 32851 ft 517 kts 65°
2026-04-25 15:31 34.33449 -114.03722 32852 ft 518 kts 65°
2026-04-25 15:31 34.36314 -113.95685 32845 ft 519 kts 65°
2026-04-25 15:32 34.39153 -113.87701 32850 ft 519 kts 65°
2026-04-25 15:32 34.42007 -113.79655 32856 ft 520 kts 65°
2026-04-25 15:33 34.46278 -113.67575 32857 ft 519 kts 65°
2026-04-25 15:33 34.49114 -113.59527 32868 ft 518 kts 65°
2026-04-25 15:34 34.51921 -113.51542 32877 ft 517 kts 65°
2026-04-25 15:34 34.53806 -113.46168 32874 ft 516 kts 65°
2026-04-25 15:35 34.58937 -113.31497 32924 ft 514 kts 65°
2026-04-25 15:36 34.63117 -113.19495 32916 ft 513 kts 65°
2026-04-25 15:36 34.65872 -113.11556 32924 ft 513 kts 66°
2026-04-25 15:37 34.68643 -113.03553 32934 ft 513 kts 65°
2026-04-25 15:37 34.71388 -112.95604 32945 ft 512 kts 65°
2026-04-25 15:38 34.74146 -112.87598 32954 ft 512 kts 65°
2026-04-25 15:38 34.76886 -112.79623 32965 ft 512 kts 66°
2026-04-25 15:39 34.79630 -112.71616 32975 ft 512 kts 65°
2026-04-25 15:39 34.82369 -112.63603 32970 ft 512 kts 65°
2026-04-25 15:40 34.84183 -112.58284 32992 ft 512 kts 65°
2026-04-25 15:40 34.87818 -112.47599 32982 ft 513 kts 66°
2026-04-25 15:41 34.90547 -112.39554 32985 ft 514 kts 66°
2026-04-25 15:41 34.93259 -112.31539 32973 ft 514 kts 66°
2026-04-25 15:42 34.95982 -112.23466 32978 ft 514 kts 66°
2026-04-25 15:42 34.98705 -112.15374 32976 ft 515 kts 66°
2026-04-25 15:43 35.01420 -112.07285 32978 ft 515 kts 66°
2026-04-25 15:43 35.04105 -111.99264 32993 ft 514 kts 66°
2026-04-25 15:44 35.06805 -111.91176 32980 ft 513 kts 66°
2026-04-25 15:44 35.09495 -111.83096 32999 ft 513 kts 66°
2026-04-25 15:45 35.11719 -111.76400 33014 ft 512 kts 66°
2026-04-25 15:45 35.13947 -111.69681 33026 ft 511 kts 66°
2026-04-25 15:46 35.17691 -111.60733 33038 ft 507 kts 56°
2026-04-25 15:46 35.21267 -111.53294 33038 ft 507 kts 56°
2026-04-25 15:47 35.24839 -111.45830 33031 ft 508 kts 56°
2026-04-25 15:47 35.28372 -111.38332 33034 ft 508 kts 57°
2026-04-25 15:48 35.31885 -111.30815 33029 ft 509 kts 57°
2026-04-25 15:48 35.35382 -111.23307 33020 ft 509 kts 57°
2026-04-25 15:49 35.38891 -111.15762 33021 ft 510 kts 57°
2026-04-25 15:49 35.42404 -111.08197 33018 ft 510 kts 57°
2026-04-25 15:50 35.45895 -111.00663 33024 ft 510 kts 57°
2026-04-25 15:50 35.49404 -110.93074 33012 ft 511 kts 57°
2026-04-25 15:51 35.52318 -110.86757 33018 ft 511 kts 57°
2026-04-25 15:51 35.56389 -110.77914 33010 ft 511 kts 57°
2026-04-25 15:52 35.59885 -110.70301 33004 ft 511 kts 57°
2026-04-25 15:52 35.63379 -110.62675 33010 ft 511 kts 57°
2026-04-25 15:53 35.66840 -110.55105 33003 ft 511 kts 57°
2026-04-25 15:53 35.70315 -110.47487 32996 ft 511 kts 57°
2026-04-25 15:54 35.73796 -110.39838 32996 ft 510 kts 57°
2026-04-25 15:54 35.77260 -110.32210 32984 ft 510 kts 57°
2026-04-25 15:55 35.80724 -110.24566 32990 ft 509 kts 57°
2026-04-25 15:55 35.84147 -110.16988 33005 ft 509 kts 57°
2026-04-25 15:56 35.87600 -110.09336 32996 ft 510 kts 57°
2026-04-25 15:56 35.91043 -110.01688 33003 ft 510 kts 57°
2026-04-25 15:57 35.94458 -109.94081 33003 ft 509 kts 57°
2026-04-25 15:57 35.97894 -109.86410 33005 ft 509 kts 57°
2026-04-25 15:58 36.01323 -109.78732 33010 ft 509 kts 57°
2026-04-25 15:58 36.04724 -109.71106 33004 ft 509 kts 57°
2026-04-25 15:59 36.08142 -109.63424 33013 ft 509 kts 57°
2026-04-25 15:59 36.11550 -109.55747 33011 ft 509 kts 57°
2026-04-25 16:00 36.13800 -109.50668 33021 ft 509 kts 57°
2026-04-25 16:00 36.18327 -109.40426 33016 ft 509 kts 57°
2026-04-25 16:01 36.21725 -109.32718 33012 ft 510 kts 57°
2026-04-25 16:01 36.25129 -109.24978 33019 ft 510 kts 57°
2026-04-25 16:02 36.28499 -109.17297 33025 ft 510 kts 57°
2026-04-25 16:02 36.31893 -109.09542 33024 ft 511 kts 57°
2026-04-25 16:03 36.35263 -109.01825 33009 ft 511 kts 57°
2026-04-25 16:03 36.38648 -108.94056 33015 ft 510 kts 57°
2026-04-25 16:04 36.42020 -108.86297 33019 ft 510 kts 57°
2026-04-25 16:04 36.45387 -108.78532 33010 ft 510 kts 57°
2026-04-25 16:05 36.48751 -108.70758 33005 ft 510 kts 57°
2026-04-25 16:06 36.53766 -108.59129 32988 ft 511 kts 57°
2026-04-25 16:06 36.57118 -108.51335 32972 ft 511 kts 57°
2026-04-25 16:07 36.60471 -108.43520 32982 ft 511 kts 57°
2026-04-25 16:07 36.63800 -108.35740 32976 ft 512 kts 57°
2026-04-25 16:08 36.67145 -108.27905 32978 ft 512 kts 57°
2026-04-25 16:08 36.70493 -108.20044 32968 ft 512 kts 57°
2026-04-25 16:09 36.73805 -108.12251 32977 ft 511 kts 57°
2026-04-25 16:09 36.77177 -108.04437 32975 ft 511 kts 56°
2026-04-25 16:10 36.80617 -107.96737 32980 ft 510 kts 55°
2026-04-25 16:10 36.84077 -107.89005 32984 ft 509 kts 56°
2026-04-25 16:11 36.87509 -107.81274 32979 ft 508 kts 56°
2026-04-25 16:11 36.90923 -107.73537 32985 ft 507 kts 56°
2026-04-25 16:12 36.94299 -107.65864 33005 ft 505 kts 56°
2026-04-25 16:12 36.97684 -107.58154 33007 ft 504 kts 56°
2026-04-25 16:13 37.01057 -107.50456 33009 ft 503 kts 56°
2026-04-25 16:13 37.04388 -107.42837 33012 ft 502 kts 56°
2026-04-25 16:14 37.07735 -107.35163 33020 ft 502 kts 56°
2026-04-25 16:14 37.11077 -107.27484 33021 ft 501 kts 56°
2026-04-25 16:15 37.14407 -107.19812 33029 ft 500 kts 56°
2026-04-25 16:15 37.17727 -107.12144 33045 ft 500 kts 56°
2026-04-25 16:16 37.21023 -107.04516 33045 ft 499 kts 57°
2026-04-25 16:16 37.23478 -106.98821 33056 ft 499 kts 57°
2026-04-25 16:17 37.26348 -106.92151 33062 ft 500 kts 57°
2026-04-25 16:18 37.29652 -106.84457 33072 ft 501 kts 57°
2026-04-25 16:18 37.32956 -106.76744 33103 ft 500 kts 57°
2026-04-25 16:19 37.36157 -106.69251 33115 ft 500 kts 57°